Location: Peterborough
(44.3091°N, 78.3197°W)
Time: 06:08:04
(UTC-04:00)

Tiros 1 - Visible Passes

Search period start: 22 March 2023 00:00
Search period end: 01 April 2023 00:00
Orbit: 628 x 662 km, 48.4° (Epoch: 21 March)

Date Brightness Start Highest point End Pass type
(mag) Time Alt. Az. Time Alt. Az. Time Alt. Az.
22 Mar 9.4 06:34:17 10° S 06:37:57 22° SE 06:41:37 10° E visible
24 Mar 9.3 05:42:53 10° S 05:46:21 20° SE 05:49:49 10° E visible
25 Mar 8.3 06:06:47 10° SSW 06:11:13 39° SE 06:15:41 10° ENE visible
26 Mar 9.2 04:53:05 15° SSE 04:54:43 18° SE 04:57:58 10° E visible
26 Mar 7.4 06:31:32 10° SW 06:36:17 70° SSE 06:41:05 10° ENE visible
27 Mar 8.3 05:17:23 23° S 05:19:34 35° SE 05:23:57 10° ENE visible
28 Mar 9.5 04:03:58 16° ESE 04:03:58 16° ESE 04:06:03 10° E visible
28 Mar 7.4 05:41:35 22° SW 05:44:36 65° SSE 05:49:22 10° ENE visible
29 Mar 8.4 04:28:06 32° SE 04:28:06 32° SE 04:32:11 10° E visible
29 Mar 7.2 06:05:42 14° WSW 06:09:49 79° NNW 06:14:39 10° ENE visible
30 Mar 7.3 04:52:09 52° S 04:52:55 60° SSE 04:57:39 10° ENE visible
31 Mar 9.3 03:38:34 20° E 03:38:34 20° E 03:40:24 10° E visible
31 Mar 7.1 05:16:09 36° WSW 05:18:06 84° NNW 05:22:55 10° ENE visible
